Wind_Speed
42 44 43 43 40 38 34 30 30 28 25 23 25 20 19 20 18 14 14 16 18 19 19 19 23 26 26 27 28 29 29 27 27 27 27 25 24 22 22 23 23 25 26
44 47 47 47 45 42 40 37 35 33 31 31 29 25 24 24 23 20 17 17 18 20 21 21 22 24 26 27 26 25 26 27 29 30 29 27 25 25 24 25 22 22 22
45 48 50 51 51 48 46 44 44 41 39 38 36 35 32 28 27 26 23 20 20 20 21 23 23 25 25 26 26 25 24 25 26 26 25 24 24 23 22 21 19 19 18
45 50 54 54 55 54 53 51 48 46 42 41 41 39 37 32 32 30 28 25 23 23 23 22 24 25 25 27 27 27 26 27 26 24 24 24 23 22 21 21 20 20 18
44 50 54 57 57 57 58 57 54 52 48 44 44 43 41 39 36 36 34 32 29 27 26 25 24 25 26 26 27 27 27 27 26 25 24 22 22 22 22 21 21 20 18
42 45 50 56 58 58 58 58 57 54 52 49 47 45 45 44 42 39 39 38 35 32 31 29 28 27 26 27 27 28 28 27 26 25 23 23 23 22 22 22 22 20 20
35 41 47 53 59 60 60 60 59 59 56 54 52 49 50 49 45 45 43 44 41 39 37 35 32 30 30 30 28 28 28 28 27 25 25 24 24 23 24 23 22 22 20
35 37 42 47 53 59 61 61 60 60 59 58 56 54 51 50 50 47 47 47 46 45 44 41 39 36 34 33 31 31 31 31 29 28 27 25 25 25 24 24 23 22 22
33 35 39 42 47 53 59 61 62 61 60 60 59 55 54 53 52 53 51 50 51 50 48 46 44 42 40 38 36 35 33 32 31 31 29 28 27 26 24 24 25 23 23
35 37 38 40 44 48 52 58 61 63 61 61 61 60 58 55 53 55 55 55 54 54 53 51 49 48 45 43 41 40 37 36 35 34 32 30 29 29 28 26 27 26 26
36 38 40 43 44 45 48 53 56 60 62 63 63 64 63 61 59 56 55 57 57 57 56 56 54 52 51 50 48 45 44 42 40 39 37 35 33 31 29 28 28 30 30
40 41 42 44 46 48 49 51 53 57 59 61 64 65 66 66 63 61 58 58 61 60 59 59 59 58 56 55 53 51 49 47 45 43 41 39 36 35 33 32 32 33 33
47 45 46 47 48 49 51 52 53 55 57 59 61 63 66 68 68 67 65 60 60 62 63 63 62 63 61 59 57 56 54 51 49 47 46 44 41 40 39 37 34 34 35
55 52 51 51 53 53 53 54 56 57 59 60 61 63 64 66 69 70 70 69 65 63 62 63 66 67 65 64 61 60 60 57 54 52 50 49 47 44 43 42 40 37 35
62 61 59 58 57 60 60 60 60 59 61 63 64 65 66 66 68 71 72 72 71 70 64 63 67 69 68 68 66 63 62 61 59 57 54 52 50 49 46 45 42 41 39
70 69 67 66 65 63 64 67 67 66 63 66 68 69 70 70 70 71 73 75 75 74 72 68 67 71 72 71 70 69 67 63 63 63 61 59 57 55 53 51 48 47 44
76 75 75 73 72 71 69 68 69 73 72 70 70 72 73 73 74 74 74 75 78 80 76 74 75 73 72 74 73 72 71 70 67 65 64 63 62 60 57 55 52 49 46
78 80 81 81 79 79 76 74 74 74 76 75 75 74 74 76 78 77 77 78 79 81 83 82 81 82 74 74 75 75 74 74 74 71 69 67 65 63 61 59 56 54 49
77 78 78 79 79 79 79 79 78 76 76 78 79 79 78 78 80 82 82 82 83 84 84 85 87 86 84 76 75 76 77 76 77 77 74 70 68 67 65 63 60 59 55
77 77 75 76 76 76 77 79 79 81 80 81 80 81 82 84 83 83 84 86 86 86 87 87 87 88 89 87 80 73 71 77 79 78 79 76 74 70 67 67 66 64 61
80 76 76 77 75 75 75 75 76 78 80 82 83 85 83 83 85 85 86 87 88 89 90 90 91 91 90 91 91 82 79 78 80 83 79 79 78 76 73 70 70 68 65
80 75 76 78 80 75 74 75 75 75 75 76 79 83 85 85 85 86 89 90 91 93 94 94 95 95 94 94 94 94 97 83 77 77 82 80 78 77 79 79 75 72 70
79 76 73 75 79 79 74 74 76 75 75 75 75 77 80 82 84 85 89 93 94 96 96 98 97 97 97 98 99 99 100 92 73 83 82 83 80 79 79 81 82 80 76
81 76 72 73 78 77 76 75 74 76 76 76 74 74 76 78 80 81 84 87 92 98 100 101 102 100 100 100 103 103 100 98 97 95 85 77 82 86 83 83 83 84 82
81 77 72 69 75 75 75 75 73 76 77 75 74 73 74 74 76 79 81 83 87 92 96 102 107 106 105 105 105 106 102 103 97 91 74 77 85 85 85 85 84 84 82
86 81 75 69 73 74 74 75 75 75 78 76 75 72 71 72 75 75 78 80 83 88 90 95 101 107 110 111 109 105 105 107 100 92 81 76 75 83 82 82 85 85 83
Wind_Direction
246 239 235 235 234 231 224 221 224 237 242 252 251 241 241 238 232 228 233 230 221 218 221 218 212 212 214 215 217 220 226 228 230 231 236 243 249 255 256 257 258 261 264
243 236 233 231 233 234 233 228 224 230 242 247 250 245 249 242 235 235 229 232 230 223 223 222 222 216 215 218 217 221 225 228 230 233 240 244 247 252 256 257 257 259 262
241 233 229 229 228 229 232 234 234 236 238 243 246 246 247 244 241 236 235 230 229 230 227 228 224 226 221 218 216 217 222 226 229 231 234 238 240 243 246 248 253 257 260
239 228 226 227 227 227 228 232 233 236 236 239 242 245 246 244 244 239 238 234 229 229 231 231 231 227 227 225 221 220 221 224 226 228 232 236 240 244 247 253 257 259 260
239 231 227 226 227 228 229 231 234 235 237 235 239 241 241 242 240 243 240 238 233 229 230 231 231 233 231 231 227 223 222 227 227 229 230 237 243 248 252 256 258 258 262
241 235 231 228 228 229 230 232 234 237 236 236 237 237 241 243 242 240 242 241 238 235 231 231 232 232 231 232 233 233 231 230 230 231 238 243 246 251 253 254 256 259 260
246 240 235 232 229 230 231 232 232 234 236 237 240 239 239 240 243 241 240 240 240 239 237 235 233 233 233 231 232 235 236 234 236 240 242 246 249 255 256 256 259 260 265
245 243 239 236 233 232 233 234 235 235 236 239 238 239 238 239 239 240 237 239 239 240 240 239 237 235 235 234 232 231 234 238 240 241 245 252 256 257 258 258 260 261 266
243 242 241 240 239 235 234 235 236 236 236 236 237 237 238 238 238 238 237 237 238 238 240 241 240 238 235 236 237 235 235 238 242 246 249 252 255 255 256 260 261 262 268
241 242 240 240 238 238 238 237 237 237 237 238 237 236 235 235 238 237 236 235 237 238 238 238 240 240 237 236 238 240 239 240 244 250 251 249 252 256 255 258 261 264 268
244 241 240 241 241 239 238 239 239 239 238 238 238 238 237 235 234 236 236 235 235 236 237 238 238 239 241 239 238 240 242 243 244 247 251 250 253 256 255 258 261 265 272
246 243 241 240 240 241 241 241 241 240 240 240 239 238 238 237 235 234 234 235 235 235 237 237 238 238 238 240 241 239 240 241 244 246 248 251 252 254 254 258 262 266 271
246 245 245 244 241 241 240 240 241 243 242 240 239 239 238 238 238 236 234 235 236 237 236 238 238 238 238 239 240 241 241 241 241 244 249 251 251 253 256 258 261 265 269
252 250 247 246 245 243 240 241 241 242 244 244 242 239 238 239 238 239 237 234 235 237 237 237 240 240 239 238 240 242 244 243 242 242 246 249 252 252 255 258 261 264 268
257 256 254 253 248 244 243 242 241 242 243 243 243 242 240 237 238 237 237 237 236 236 236 236 237 241 240 239 239 240 244 246 245 243 244 246 250 252 253 256 260 264 265
260 258 256 256 253 251 246 246 245 243 243 244 243 243 242 241 238 238 238 236 237 236 235 235 235 237 240 241 240 239 240 244 246 246 246 247 249 250 252 253 257 262 263
259 257 257 256 255 253 251 250 251 249 246 243 243 243 244 243 242 240 238 238 237 236 236 235 236 237 239 239 241 239 239 241 243 247 250 250 250 250 252 254 256 258 260
256 257 258 256 254 254 253 252 253 250 248 246 244 244 243 243 244 243 242 239 238 238 237 237 237 237 239 241 241 241 240 240 241 243 246 248 252 252 254 255 257 257 258
260 259 257 256 257 255 255 255 252 251 250 247 245 243 243 244 244 243 243 242 240 238 239 238 237 238 237 237 240 242 242 242 241 242 243 246 249 252 254 255 256 257 258
262 262 261 259 257 255 254 253 253 251 249 249 248 246 243 242 243 244 243 244 244 242 240 239 238 238 238 237 238 240 241 243 243 243 243 244 247 249 251 252 254 256 258
263 262 261 262 259 257 255 253 250 251 249 248 248 248 246 243 242 243 243 244 244 243 242 240 240 240 238 237 237 237 240 242 245 244 243 243 244 247 249 251 252 253 255
266 262 259 259 260 258 256 255 252 250 249 248 248 248 247 246 244 244 244 244 243 243 243 242 240 238 238 239 239 232 236 234 243 239 244 244 244 246 246 249 250 251 251
267 263 258 257 257 258 256 254 252 251 250 248 247 247 247 247 247 246 245 244 244 243 243 243 243 242 239 237 238 239 237 235 230 239 242 245 245 245 246 247 249 251 251
268 264 259 258 256 255 254 253 250 249 249 248 248 247 248 247 247 247 246 245 243 242 242 243 244 243 242 240 239 238 239 238 235 236 239 244 245 245 247 247 248 249 251
268 265 261 256 254 253 252 249 247 246 247 248 248 248 248 248 248 248 247 246 244 243 243 243 243 244 243 243 241 239 239 238 237 237 232 242 244 243 242 244 247 248 250
270 268 262 258 254 251 249 247 244 243 245 247 247 246 247 247 248 249 249 248 247 245 244 243 243 243 243 242 242 241 238 238 235 231 229 231 247 247 243 246 246 246 248
Height
10815 10816 10821 10824 10827 10830 10833 10836 10838 10840 10841 10843 10846 10849 10849 10850 10852 10853 10854 10856 10857 10858 10859 10861 10862 10864 10865 10866 10868 10870 10871 10872 10873 10874 10874 10875 10876 10877 10877 10878 10877 10878 10878
10807 10808 10812 10816 10820 10823 10826 10830 10833 10835 10837 10839 10841 10844 10846 10847 10849 10850 10852 10853 10854 10855 10857 10858 10860 10861 10862 10864 10865 10867 10868 10870 10871 10872 10873 10873 10874 10874 10874 10874 10874 10874 10875
10797 10799 10802 10806 10811 10815 10819 10822 10825 10829 10832 10834 10837 10839 10842 10844 10845 10847 10848 10850 10851 10853 10854 10855 10857 10858 10860 10861 10862 10863 10865 10867 10868 10869 10870 10871 10871 10872 10872 10872 10872 10871 10872
10786 10789 10792 10796 10801 10806 10810 10813 10817 10821 10825 10828 10831 10833 10836 10839 10840 10843 10844 10846 10848 10849 10851 10852 10854 10855 10857 10858 10859 10860 10861 10863 10864 10866 10867 10867 10868 10869 10869 10868 10868 10869 10869
10776 10780 10783 10787 10792 10796 10800 10805 10809 10813 10817 10821 10824 10827 10830 10833 10835 10837 10840 10842 10844 10845 10846 10849 10850 10851 10853 10855 10856 10857 10858 10859 10860 10862 10863 10864 10864 10865 10865 10866 10866 10866 10866
10768 10773 10777 10780 10784 10788 10792 10796 10802 10805 10809 10813 10817 10821 10824 10826 10829 10831 10834 10836 10839 10840 10841 10844 10846 10848 10850 10851 10853 10854 10855 10856 10857 10859 10860 10860 10860 10861 10862 10862 10862 10862 10863
10762 10765 10768 10771 10775 10779 10782 10785 10790 10796 10800 10804 10808 10812 10816 10819 10822 10824 10827 10830 10832 10834 10836 10839 10842 10843 10845 10847 10849 10850 10852 10853 10854 10856 10856 10856 10857 10858 10858 10858 10858 10859 10859
10755 10756 10759 10763 10767 10771 10774 10777 10781 10786 10791 10794 10799 10803 10807 10810 10814 10816 10819 10822 10825 10827 10829 10832 10835 10838 10840 10842 10843 10845 10847 10848 10850 10852 10852 10853 10854 10854 10854 10854 10855 10855 10855
10747 10749 10752 10754 10758 10761 10765 10768 10771 10775 10779 10784 10788 10793 10798 10800 10803 10807 10810 10814 10816 10819 10821 10825 10829 10831 10833 10835 10838 10839 10841 10843 10845 10846 10848 10849 10850 10850 10850 10850 10850 10850 10851
10740 10741 10742 10745 10748 10751 10754 10758 10761 10765 10768 10772 10776 10781 10786 10790 10793 10796 10800 10803 10807 10810 10813 10817 10820 10823 10826 10828 10831 10833 10835 10837 10839 10840 10842 10844 10844 10845 10845 10846 10846 10846 10846
10731 10732 10734 10736 10738 10740 10744 10747 10750 10754 10757 10762 10765 10769 10774 10778 10782 10786 10789 10793 10796 10800 10804 10807 10811 10814 10817 10820 10823 10826 10828 10831 10832 10834 10836 10838 10838 10839 10840 10840 10841 10841 10842
10720 10721 10724 10726 10729 10732 10734 10736 10739 10742 10746 10750 10754 10757 10761 10766 10770 10776 10780 10783 10786 10791 10795 10797 10800 10803 10807 10811 10814 10817 10820 10823 10825 10827 10829 10831 10833 10833 10834 10835 10835 10836 10837
10708 10711 10713 10715 10717 10720 10723 10725 10728 10730 10733 10737 10742 10745 10749 10753 10759 10764 10769 10773 10776 10780 10785 10787 10789 10792 10796 10801 10805 10808 10811 10813 10817 10820 10821 10824 10826 10827 10828 10828 10829 10830 10831
10697 10701 10702 10704 10705 10707 10710 10713 10716 10718 10721 10724 10728 10732 10736 10741 10745 10750 10757 10761 10765 10768 10773 10777 10778 10780 10786 10790 10794 10798 10801 10805 10808 10812 10814 10816 10817 10820 10821 10821 10822 10823 10825
10683 10686 10689 10691 10693 10694 10696 10699 10702 10705 10708 10710 10713 10717 10721 10726 10730 10735 10742 10748 10752 10756 10761 10764 10767 10767 10773 10778 10784 10788 10791 10795 10799 10802 10805 10807 10809 10811 10812 10813 10815 10816 10817
10666 10668 10671 10674 10677 10680 10683 10684 10687 10690 10693 10696 10699 10702 10706 10710 10715 10720 10725 10731 10736 10741 10747 10751 10754 10756 10760 10766 10772 10777 10781 10784 10788 10792 10796 10798 10800 10801 10803 10804 10807 10807 10809
10648 10650 10653 10655 10657 10661 10665 10669 10671 10673 10676 10680 10683 10687 10691 10694 10698 10704 10709 10714 10719 10725 10730 10735 10740 10744 10747 10753 10757 10763 10769 10773 10777 10781 10785 10788 10790 10792 10793 10795 10798 10799 10801
10624 10626 10629 10633 10638 10642 10645 10648 10652 10655 10658 10662 10666 10670 10673 10678 10682 10687 10692 10697 10702 10707 10713 10719 10724 10731 10736 10739 10743 10749 10754 10758 10763 10769 10773 10777 10780 10782 10784 10786 10788 10790 10792
10604 10606 10608 10612 10616 10621 10624 10628 10631 10635 10639 10642 10645 10651 10656 10659 10664 10669 10673 10678 10683 10689 10694 10700 10707 10713 10721 10724 10728 10733 10738 10744 10749 10755 10760 10765 10769 10773 10775 10776 10778 10780 10783
10584 10586 10588 10590 10593 10597 10602 10606 10609 10614 10618 10621 10626 10630 10635 10639 10643 10649 10654 10659 10665 10671 10677 10682 10688 10695 10702 10707 10712 10720 10722 10730 10736 10739 10746 10752 10756 10761 10764 10767 10766 10769 10772
10562 10565 10566 10566 10571 10573 10577 10582 10586 10591 10595 10599 10603 10608 10612 10618 10624 10629 10634 10639 10645 10650 10656 10663 10670 10676 10683 10690 10695 10709 10711 10715 10721 10725 10731 10737 10743 10747 10751 10754 10754 10757 10759
10537 10540 10543 10545 10547 10550 10555 10559 10562 10568 10573 10577 10581 10586 10590 10596 10603 10610 10614 10617 10623 10628 10633 10641 10647 10655 10663 10671 10678 10688 10688 10699 10702 10709 10715 10723 10726 10731 10736 10738 10741 10744 10746
10512 10514 10518 10522 10524 10528 10534 10537 10541 10546 10550 10555 10561 10566 10569 10573 10579 10586 10591 10596 10602 10607 10612 10618 10625 10634 10643 10649 10656 10661 10670 10683 10690 10691 10698 10703 10709 10714 10718 10722 10726 10730 10734
10487 10489 10494 10498 10500 10505 10511 10514 10519 10523 10527 10533 10540 10544 10549 10554 10557 10563 10568 10573 10579 10585 10591 10597 10603 10611 10619 10629 10633 10641 10651 10665 10668 10676 10683 10686 10690 10696 10701 10705 10710 10715 10719
10462 10464 10467 10474 10476 10482 10487 10491 10497 10500 10505 10512 10518 10524 10529 10534 10537 10540 10545 10551 10557 10561 10567 10573 10578 10585 10595 10602 10611 10619 10633 10640 10651 10662 10668 10668 10672 10678 10682 10688 10694 10700 10706
10437 10439 10443 10448 10452 10458 10463 10468 10475 10480 10484 10490 10495 10503 10509 10514 10517 10520 10523 10528 10533 10538 10544 10547 10552 10558 10568 10575 10584 10598 10611 10618 10633 10642 10647 10653 10654 10658 10666 10671 10680 10686 10693